Time,TemperatureF,DewpointF,PressureIn,WindDirection,WindDirectionDegrees,WindSpeedMPH,WindSpeedGustMPH,Humidity,HourlyPrecipIn,Conditions,Clouds,dailyrainin,SoftwareType,DateUTC
2013-06-23 00:01:00,64.7,57.7,30.14,NE,43,0.0,0.0,78,0.00,-RA,,0.00,WeatherDisplay:10.37,2013-06-23 04:01:00,
2013-06-23 00:02:00,64.8,57.8,30.14,NE,43,0.0,0.0,78,0.00,-RA,,0.00,WeatherDisplay:10.37,2013-06-23 04:02:00,
2013-06-23 00:04:00,64.5,57.5,30.14,NE,42,0.0,0.0,78,0.00,-RA,,0.00,WeatherDisplay:10.37,2013-06-23 04:04:00,
2013-06-23 00:09:00,64.5,57.5,30.14,NE,43,0.0,0.0,78,0.00,-RA,,0.00,WeatherDisplay:10.37,2013-06-23 04:09:00,
2013-06-23 00:14:00,64.2,57.2,30.14,NE,43,0.0,0.0,78,0.00,-RA,,0.00,WeatherDisplay:10.37,2013-06-23 04:14:00,
2013-06-23 00:19:00,64.5,57.5,30.14,NE,43,0.0,0.0,78,0.00,-RA,,0.00,WeatherDisplay:10.37,2013-06-23 04:19:00,
2013-06-23 00:24:00,64.2,57.2,30.14,NE,43,0.0,0.0,78,0.00,-RA,,0.00,WeatherDisplay:10.37,2013-06-23 04:24:00,
2013-06-23 00:29:00,64.5,57.5,30.14,NE,43,0.0,0.0,78,0.00,-RA,,0.00,WeatherDisplay:10.37,2013-06-23 04:29:00,
2013-06-23 00:34:00,64.3,57.3,30.14,NE,42,0.0,0.0,78,0.00,-RA,,0.00,WeatherDisplay:10.37,2013-06-23 04:34:00,
2013-06-23 00:39:00,64.1,57.1,30.14,NE,43,0.0,0.0,78,0.00,-RA,,0.00,WeatherDisplay:10.37,2013-06-23 04:39:00,
2013-06-23 00:44:00,64.0,57.0,30.14,NE,43,0.0,0.0,78,0.00,-RA,,0.00,WeatherDisplay:10.37,2013-06-23 04:44:00,
2013-06-23 00:49:00,64.1,57.1,30.14,NE,43,0.0,0.0,78,0.01,-RA,,0.01,WeatherDisplay:10.37,2013-06-23 04:49:00,
2013-06-23 00:54:00,63.9,56.9,30.14,NE,43,0.0,0.0,78,0.01,-RA,,0.01,WeatherDisplay:10.37,2013-06-23 04:54:00,
2013-06-23 00:59:00,63.7,56.7,30.14,NE,43,0.0,0.0,78,0.01,-RA,,0.01,WeatherDisplay:10.37,2013-06-23 04:59:00,
2013-06-23 01:04:00,63.7,62.5,30.14,NE,43,0.0,0.0,96,0.02,-RA,,0.02,WeatherDisplay:10.37,2013-06-23 05:04:00,
2013-06-23 01:09:00,63.7,62.5,30.14,NE,43,0.0,0.0,96,0.02,-RA,,0.02,WeatherDisplay:10.37,2013-06-23 05:09:00,
2013-06-23 01:14:00,63.6,62.4,30.14,NE,42,0.0,0.0,96,0.02,-RA,,0.02,WeatherDisplay:10.37,2013-06-23 05:14:00,
2013-06-23 01:19:00,63.7,62.5,30.14,NE,43,0.0,0.0,96,0.02,-RA,,0.02,WeatherDisplay:10.37,2013-06-23 05:19:00,
2013-06-23 01:24:00,63.7,62.5,30.14,NE,43,0.0,0.0,96,0.02,-RA,,0.02,WeatherDisplay:10.37,2013-06-23 05:24:00,
2013-06-23 01:29:00,63.6,62.4,30.14,NE,43,0.0,0.0,96,0.02,-RA,,0.02,WeatherDisplay:10.37,2013-06-23 05:29:00,
2013-06-23 01:34:00,63.5,62.3,30.14,NE,43,0.0,0.0,96,0.02,-RA,,0.02,WeatherDisplay:10.37,2013-06-23 05:34:00,
2013-06-23 01:39:00,63.5,62.3,30.14,NE,43,0.0,0.0,96,0.02,-RA,,0.02,WeatherDisplay:10.37,2013-06-23 05:39:00,
2013-06-23 01:44:00,63.6,62.4,30.14,NE,43,0.0,0.0,96,0.02,-RA,,0.02,WeatherDisplay:10.37,2013-06-23 05:44:00,
2013-06-23 01:49:00,63.5,62.3,30.14,NE,43,0.0,0.0,96,0.01,-RA,,0.02,WeatherDisplay:10.37,2013-06-23 05:49:00,
2013-06-23 01:54:00,63.7,62.5,30.14,NE,43,0.0,0.0,96,0.01,-RA,,0.02,WeatherDisplay:10.37,2013-06-23 05:54:00,
2013-06-23 01:59:00,63.4,62.2,30.14,NE,43,0.0,0.0,96,0.01,-RA,,0.02,WeatherDisplay:10.37,2013-06-23 05:59:00,
2013-06-23 02:01:00,63.4,62.2,30.13,NE,43,0.0,0.0,96,0.01,OVC,,0.02,WeatherDisplay:10.37,2013-06-23 06:01:00,
2013-06-23 02:06:00,63.2,62.0,30.13,NE,43,0.0,0.0,96,0.00,OVC,,0.02,WeatherDisplay:10.37,2013-06-23 06:06:00,
2013-06-23 02:11:00,63.3,62.1,30.13,NE,43,0.0,0.0,96,0.00,OVC,,0.02,WeatherDisplay:10.37,2013-06-23 06:11:00,
2013-06-23 02:16:00,63.2,62.0,30.13,NE,43,0.0,0.0,96,0.00,OVC,,0.02,WeatherDisplay:10.37,2013-06-23 06:16:00,
2013-06-23 02:21:00,63.2,62.0,30.13,NE,43,0.0,0.0,96,0.00,OVC,,0.02,WeatherDisplay:10.37,2013-06-23 06:21:00,
2013-06-23 02:26:00,63.3,62.1,30.13,NE,43,0.0,0.0,96,0.00,OVC,,0.02,WeatherDisplay:10.37,2013-06-23 06:26:00,
2013-06-23 02:31:00,63.0,61.8,30.13,NE,43,0.0,0.0,96,0.00,OVC,,0.02,WeatherDisplay:10.37,2013-06-23 06:31:00,
2013-06-23 02:36:00,63.1,61.9,30.13,NE,43,0.0,0.0,96,0.00,OVC,,0.02,WeatherDisplay:10.37,2013-06-23 06:36:00,
2013-06-23 02:41:00,62.9,61.7,30.13,NE,43,0.0,0.0,96,0.00,OVC,,0.02,WeatherDisplay:10.37,2013-06-23 06:41:00,
2013-06-23 02:46:00,62.8,61.6,30.13,NE,43,0.0,0.0,96,0.00,OVC,,0.02,WeatherDisplay:10.37,2013-06-23 06:46:00,
2013-06-23 02:51:00,63.0,61.8,30.13,NE,43,0.0,0.0,96,0.00,OVC,,0.02,WeatherDisplay:10.37,2013-06-23 06:51:00,
2013-06-23 02:56:00,63.1,61.9,30.13,NE,43,0.0,0.0,96,0.00,OVC,,0.02,WeatherDisplay:10.37,2013-06-23 06:56:00,
2013-06-23 03:01:00,63.0,60.9,30.13,NE,43,0.0,0.0,93,0.00,OVC,,0.02,WeatherDisplay:10.37,2013-06-23 07:01:00,
2013-06-23 03:06:00,62.9,60.8,30.13,NE,42,0.0,0.0,93,0.00,OVC,,0.02,WeatherDisplay:10.37,2013-06-23 07:06:00,
2013-06-23 03:11:00,62.9,60.8,30.13,NE,43,0.0,0.0,93,0.00,OVC,,0.02,WeatherDisplay:10.37,2013-06-23 07:11:00,
2013-06-23 03:16:00,62.8,60.7,30.13,NE,43,0.0,0.0,93,0.00,OVC,,0.02,WeatherDisplay:10.37,2013-06-23 07:16:00,
2013-06-23 03:21:00,62.7,60.6,30.13,NE,43,0.0,0.0,93,0.00,OVC,,0.02,WeatherDisplay:10.37,2013-06-23 07:21:00,
2013-06-23 03:26:00,62.8,60.7,30.13,NE,43,0.0,0.0,93,0.00,OVC,,0.02,WeatherDisplay:10.37,2013-06-23 07:26:00,
2013-06-23 03:31:00,62.7,60.6,30.13,NE,43,0.0,0.0,93,0.00,OVC,,0.02,WeatherDisplay:10.37,2013-06-23 07:31:00,
2013-06-23 03:36:00,62.6,60.5,30.13,NE,43,0.0,0.0,93,0.00,OVC,,0.02,WeatherDisplay:10.37,2013-06-23 07:36:00,
2013-06-23 03:41:00,62.5,60.4,30.13,NE,43,0.0,0.0,93,0.00,OVC,,0.02,WeatherDisplay:10.37,2013-06-23 07:41:00,
2013-06-23 03:46:00,62.3,60.2,30.13,NE,43,0.0,0.0,93,0.00,OVC,,0.02,WeatherDisplay:10.37,2013-06-23 07:46:00,
2013-06-23 03:51:00,62.1,60.1,30.13,NE,42,0.0,0.0,93,0.00,OVC,,0.02,WeatherDisplay:10.37,2013-06-23 07:51:00,
2013-06-23 03:56:00,62.0,60.0,30.13,NE,43,0.0,0.0,93,0.00,OVC,,0.02,WeatherDisplay:10.37,2013-06-23 07:56:00,
2013-06-23 04:01:00,62.2,61.0,30.10,NE,43,0.0,0.0,96,0.00,CLR,,0.02,WeatherDisplay:10.37,2013-06-23 08:01:00,
2013-06-23 04:06:00,62.1,60.9,30.10,NE,43,0.0,0.0,96,0.00,CLR,,0.02,WeatherDisplay:10.37,2013-06-23 08:06:00,
2013-06-23 04:11:00,62.1,60.9,30.10,NE,42,0.0,0.0,96,0.00,CLR,,0.02,WeatherDisplay:10.37,2013-06-23 08:11:00,
2013-06-23 04:16:00,62.0,60.8,30.10,NE,43,0.0,0.0,96,0.00,CLR,,0.02,WeatherDisplay:10.37,2013-06-23 08:16:00,
2013-06-23 04:21:00,62.1,60.9,30.10,NE,43,0.0,0.0,96,0.00,CLR,,0.02,WeatherDisplay:10.37,2013-06-23 08:21:00,
2013-06-23 04:26:00,62.1,60.9,30.10,NE,43,0.0,0.0,96,0.00,CLR,,0.02,WeatherDisplay:10.37,2013-06-23 08:26:00,
2013-06-23 04:31:00,61.9,60.7,30.10,NE,42,0.0,0.0,96,0.00,CLR,,0.02,WeatherDisplay:10.37,2013-06-23 08:31:00,
2013-06-23 04:36:00,61.9,60.7,30.10,NE,43,0.0,0.0,96,0.00,CLR,,0.02,WeatherDisplay:10.37,2013-06-23 08:36:00,
2013-06-23 04:41:00,62.0,60.8,30.10,NE,43,0.0,0.0,96,0.00,CLR,,0.02,WeatherDisplay:10.37,2013-06-23 08:41:00,
2013-06-23 04:46:00,62.1,60.9,30.10,NE,42,0.0,0.0,96,0.00,CLR,,0.02,WeatherDisplay:10.37,2013-06-23 08:46:00,
2013-06-23 04:51:00,62.1,60.9,30.10,NE,43,0.0,0.0,96,0.00,CLR,,0.02,WeatherDisplay:10.37,2013-06-23 08:51:00,
2013-06-23 04:56:00,62.0,60.8,30.10,NE,43,0.0,0.0,96,0.00,CLR,,0.02,WeatherDisplay:10.37,2013-06-23 08:56:00,
2013-06-23 05:01:00,62.3,61.1,30.10,NE,43,0.0,0.0,96,0.00,FEW,,0.02,WeatherDisplay:10.37,2013-06-23 09:01:00,
2013-06-23 05:06:00,62.3,61.1,30.10,NE,43,0.0,0.0,96,0.00,FEW,,0.02,WeatherDisplay:10.37,2013-06-23 09:06:00,
2013-06-23 05:11:00,62.2,61.0,30.10,NE,43,0.0,0.0,96,0.00,FEW,,0.02,WeatherDisplay:10.37,2013-06-23 09:11:00,
2013-06-23 05:16:00,62.1,60.9,30.10,NE,43,0.0,0.0,96,0.00,FEW,,0.02,WeatherDisplay:10.37,2013-06-23 09:16:00,
2013-06-23 05:21:00,62.2,61.0,30.10,NE,43,0.0,0.0,96,0.00,FEW,,0.02,WeatherDisplay:10.37,2013-06-23 09:21:00,
2013-06-23 05:26:00,62.2,61.0,30.10,NE,42,0.0,0.0,96,0.00,FEW,,0.02,WeatherDisplay:10.37,2013-06-23 09:26:00,
2013-06-23 05:31:00,61.8,60.6,30.10,NE,43,0.0,0.0,96,0.00,FEW,,0.02,WeatherDisplay:10.37,2013-06-23 09:31:00,
2013-06-23 05:36:00,61.9,60.7,30.10,NE,43,0.0,0.0,96,0.00,FEW,,0.02,WeatherDisplay:10.37,2013-06-23 09:36:00,
2013-06-23 05:41:00,62.1,60.9,30.10,NE,43,0.0,0.0,96,0.00,FEW,,0.02,WeatherDisplay:10.37,2013-06-23 09:41:00,
2013-06-23 05:46:00,62.1,60.9,30.10,NE,43,0.0,0.0,96,0.00,FEW,,0.02,WeatherDisplay:10.37,2013-06-23 09:46:00,
2013-06-23 05:51:00,62.2,61.0,30.10,NE,42,0.0,0.0,96,0.00,FEW,,0.02,WeatherDisplay:10.37,2013-06-23 09:51:00,
2013-06-23 05:56:00,62.2,61.0,30.10,NE,42,0.0,0.0,96,0.00,FEW,,0.02,WeatherDisplay:10.37,2013-06-23 09:56:00,
2013-06-23 06:01:00,62.4,61.2,30.11,NE,43,0.0,0.0,96,0.00,OVC,,0.02,WeatherDisplay:10.37,2013-06-23 10:01:00,
2013-06-23 06:06:00,62.5,61.3,30.11,NE,43,0.0,0.0,96,0.00,OVC,,0.02,WeatherDisplay:10.37,2013-06-23 10:06:00,
2013-06-23 06:11:00,62.4,61.2,30.11,NE,43,0.0,0.0,96,0.00,OVC,,0.02,WeatherDisplay:10.37,2013-06-23 10:11:00,
2013-06-23 06:16:00,62.5,61.3,30.11,NE,43,0.0,0.0,96,0.00,OVC,,0.02,WeatherDisplay:10.37,2013-06-23 10:16:00,
2013-06-23 06:21:00,62.5,61.3,30.11,NE,43,0.0,0.0,96,0.00,OVC,,0.02,WeatherDisplay:10.37,2013-06-23 10:21:00,
2013-06-23 06:26:00,62.5,61.3,30.11,NE,43,0.0,0.0,96,0.00,OVC,,0.02,WeatherDisplay:10.37,2013-06-23 10:26:00,
2013-06-23 06:31:00,62.6,61.4,30.11,NE,43,0.0,0.0,96,0.00,OVC,,0.02,WeatherDisplay:10.37,2013-06-23 10:31:00,
2013-06-23 06:36:00,62.5,61.3,30.11,NE,43,0.0,0.0,96,0.00,OVC,,0.02,WeatherDisplay:10.37,2013-06-23 10:36:00,
2013-06-23 06:41:00,62.5,61.3,30.11,NE,42,0.0,0.0,96,0.00,OVC,,0.02,WeatherDisplay:10.37,2013-06-23 10:41:00,
2013-06-23 06:46:00,62.5,61.3,30.11,NE,43,0.0,0.0,96,0.00,OVC,,0.02,WeatherDisplay:10.37,2013-06-23 10:46:00,
2013-06-23 06:51:00,62.6,61.4,30.11,NE,43,0.0,0.0,96,0.00,OVC,,0.02,WeatherDisplay:10.37,2013-06-23 10:51:00,
2013-06-23 06:56:00,62.6,61.4,30.11,NE,43,0.0,0.0,96,0.00,OVC,,0.02,WeatherDisplay:10.37,2013-06-23 10:56:00,
2013-06-23 07:01:00,62.7,61.5,30.11,NE,43,0.0,0.0,96,0.00,OVC,,0.02,WeatherDisplay:10.37,2013-06-23 11:01:00,
2013-06-23 07:06:00,62.7,61.5,30.11,NE,43,0.0,0.0,96,0.00,OVC,,0.02,WeatherDisplay:10.37,2013-06-23 11:06:00,
2013-06-23 07:11:00,62.9,60.8,30.11,NE,43,0.0,0.0,93,0.00,BKN,,0.02,WeatherDisplay:10.37,2013-06-23 11:11:00,
2013-06-23 07:16:00,62.9,60.8,30.11,NE,43,0.0,0.0,93,0.00,BKN,,0.02,WeatherDisplay:10.37,2013-06-23 11:16:00,
2013-06-23 07:21:00,62.9,60.8,30.11,NE,43,0.0,0.0,93,0.00,BKN,,0.02,WeatherDisplay:10.37,2013-06-23 11:21:00,
2013-06-23 07:26:00,63.1,61.0,30.11,NE,43,0.0,0.0,93,0.00,BKN,,0.02,WeatherDisplay:10.37,2013-06-23 11:26:00,
2013-06-23 07:31:00,63.1,61.0,30.11,NE,42,0.0,0.0,93,0.00,BKN,,0.02,WeatherDisplay:10.37,2013-06-23 11:31:00,
2013-06-23 07:36:00,63.4,61.3,30.11,NE,43,0.0,0.0,93,0.00,BKN,,0.02,WeatherDisplay:10.37,2013-06-23 11:36:00,
2013-06-23 07:41:00,64.0,61.9,30.11,NE,43,0.0,0.0,93,0.00,BKN,,0.02,WeatherDisplay:10.37,2013-06-23 11:41:00,
2013-06-23 07:46:00,63.4,61.3,30.11,NE,43,0.0,0.0,93,0.00,BKN,,0.02,WeatherDisplay:10.37,2013-06-23 11:46:00,
2013-06-23 07:51:00,63.3,61.2,30.11,NE,43,0.0,0.0,93,0.00,BKN,,0.02,WeatherDisplay:10.37,2013-06-23 11:51:00,
2013-06-23 07:56:00,63.2,61.1,30.11,NE,43,0.0,0.0,93,0.00,BKN,,0.02,WeatherDisplay:10.37,2013-06-23 11:56:00,
2013-06-23 08:01:00,63.3,61.2,30.11,NE,43,0.0,0.0,93,0.00,BKN,,0.02,WeatherDisplay:10.37,2013-06-23 12:01:00,
2013-06-23 08:06:00,63.1,61.0,30.11,NE,43,0.0,0.0,93,0.00,BKN,,0.02,WeatherDisplay:10.37,2013-06-23 12:06:00,
2013-06-23 08:11:00,64.3,59.0,30.13,NE,43,0.0,0.0,83,0.00,BKN,,0.02,WeatherDisplay:10.37,2013-06-23 12:11:00,
2013-06-23 08:16:00,63.7,58.4,30.13,NE,43,0.0,0.0,83,0.00,BKN,,0.02,WeatherDisplay:10.37,2013-06-23 12:16:00,
2013-06-23 08:21:00,63.9,58.6,30.13,NE,43,0.0,0.0,83,0.00,BKN,,0.02,WeatherDisplay:10.37,2013-06-23 12:21:00,
2013-06-23 08:26:00,63.7,58.4,30.13,NE,43,0.0,0.0,83,0.00,BKN,,0.02,WeatherDisplay:10.37,2013-06-23 12:26:00,
2013-06-23 08:31:00,63.9,58.6,30.13,NE,43,0.0,0.0,83,0.00,BKN,,0.02,WeatherDisplay:10.37,2013-06-23 12:31:00,
2013-06-23 08:36:00,64.0,58.7,30.13,NE,42,0.0,0.0,83,0.00,BKN,,0.02,WeatherDisplay:10.37,2013-06-23 12:36:00,
2013-06-23 08:41:00,63.8,58.5,30.13,NE,43,0.0,0.0,83,0.00,BKN,,0.02,WeatherDisplay:10.37,2013-06-23 12:41:00,
2013-06-23 08:46:00,63.6,58.3,30.13,NE,43,0.0,0.0,83,0.00,BKN,,0.02,WeatherDisplay:10.37,2013-06-23 12:46:00,
2013-06-23 08:51:00,63.9,58.6,30.13,NE,43,0.0,0.0,83,0.05,RA,,0.08,WeatherDisplay:10.37,2013-06-23 12:51:00,
2013-06-23 08:56:00,63.6,58.3,30.13,NE,43,0.0,0.0,83,0.07,RA,,0.09,WeatherDisplay:10.37,2013-06-23 12:56:00,
2013-06-23 09:01:00,63.5,57.6,30.13,NE,43,0.0,0.0,81,0.07,BKN,,0.09,WeatherDisplay:10.37,2013-06-23 13:01:00,
2013-06-23 09:06:00,63.5,57.6,30.13,NE,43,0.0,0.0,81,0.07,BKN,,0.09,WeatherDisplay:10.37,2013-06-23 13:06:00,
2013-06-23 09:11:00,63.9,58.0,30.13,NE,43,0.0,0.0,81,0.07,BKN,,0.09,WeatherDisplay:10.37,2013-06-23 13:11:00,
2013-06-23 09:17:00,64.1,58.1,30.13,NE,43,0.0,0.0,81,0.07,BKN,,0.09,WeatherDisplay:10.37,2013-06-23 13:17:00,
2013-06-23 09:22:00,64.6,58.6,30.13,NE,43,0.0,0.0,81,0.07,BKN,,0.09,WeatherDisplay:10.37,2013-06-23 13:22:00,
2013-06-23 09:27:00,65.2,59.2,30.13,NE,43,0.0,0.0,81,0.07,BKN,,0.09,WeatherDisplay:10.37,2013-06-23 13:27:00,
2013-06-23 09:32:00,65.1,59.1,30.13,NE,43,0.0,0.0,81,0.07,BKN,,0.09,WeatherDisplay:10.37,2013-06-23 13:32:00,
2013-06-23 09:37:00,65.3,59.3,30.13,NE,43,0.0,0.0,81,0.07,BKN,,0.09,WeatherDisplay:10.37,2013-06-23 13:37:00,
2013-06-23 09:42:00,65.6,59.6,30.13,NE,43,0.0,0.0,81,0.07,BKN,,0.09,WeatherDisplay:10.37,2013-06-23 13:42:00,
2013-06-23 09:47:00,66.1,60.1,30.13,NE,43,0.0,0.0,81,0.07,BKN,,0.09,WeatherDisplay:10.37,2013-06-23 13:47:00,
2013-06-23 09:52:00,67.1,61.1,30.13,NE,43,0.0,0.0,81,0.01,BKN,,0.09,WeatherDisplay:10.37,2013-06-23 13:52:00,
2013-06-23 09:57:00,66.9,60.9,30.13,NE,43,0.0,0.0,81,0.00,BKN,,0.09,WeatherDisplay:10.37,2013-06-23 13:57:00,
2013-06-23 10:02:00,67.0,58.1,30.11,NE,43,0.0,0.0,73,0.00,FEW,,0.09,WeatherDisplay:10.37,2013-06-23 14:02:00,
2013-06-23 10:07:00,67.4,58.4,30.11,NE,43,0.0,0.0,73,0.00,FEW,,0.09,WeatherDisplay:10.37,2013-06-23 14:07:00,
2013-06-23 10:12:00,68.8,59.8,30.11,NE,43,0.0,0.0,73,0.00,FEW,,0.09,WeatherDisplay:10.37,2013-06-23 14:12:00,
2013-06-23 10:17:00,67.7,58.7,30.11,NE,43,0.0,0.0,73,0.00,FEW,,0.09,WeatherDisplay:10.37,2013-06-23 14:17:00,
2013-06-23 10:22:00,67.7,58.7,30.11,NE,43,0.0,0.0,73,0.00,FEW,,0.09,WeatherDisplay:10.37,2013-06-23 14:22:00,
2013-06-23 10:27:00,67.6,58.6,30.11,NE,43,0.0,0.0,73,0.00,FEW,,0.09,WeatherDisplay:10.37,2013-06-23 14:27:00,
2013-06-23 10:32:00,67.3,58.3,30.11,NE,43,0.0,0.0,73,0.00,FEW,,0.09,WeatherDisplay:10.37,2013-06-23 14:32:00,
2013-06-23 10:37:00,67.4,58.4,30.11,NE,43,0.0,0.0,73,0.00,FEW,,0.09,WeatherDisplay:10.37,2013-06-23 14:37:00,
2013-06-23 10:42:00,67.7,58.7,30.11,NE,43,0.0,0.0,73,0.00,FEW,,0.09,WeatherDisplay:10.37,2013-06-23 14:42:00,
2013-06-23 10:47:00,67.5,58.5,30.11,NE,43,0.0,0.0,73,0.00,FEW,,0.09,WeatherDisplay:10.37,2013-06-23 14:47:00,
2013-06-23 10:52:00,66.8,57.9,30.11,NE,43,0.0,0.0,73,0.00,FEW,,0.09,WeatherDisplay:10.37,2013-06-23 14:52:00,
2013-06-23 10:57:00,66.5,57.6,30.11,NE,43,0.0,0.0,73,0.00,FEW,,0.09,WeatherDisplay:10.37,2013-06-23 14:57:00,
2013-06-23 11:02:00,66.8,57.9,30.11,NE,43,0.0,0.0,73,0.01,FEW,,0.10,WeatherDisplay:10.37,2013-06-23 15:02:00,
2013-06-23 11:07:00,66.6,57.7,30.11,NE,42,0.0,0.0,73,0.01,FEW,,0.10,WeatherDisplay:10.37,2013-06-23 15:07:00,
2013-06-23 11:12:00,66.9,59.1,30.10,NE,43,0.0,0.0,76,0.02,RA,,0.11,WeatherDisplay:10.37,2013-06-23 15:12:00,
2013-06-23 11:17:00,66.6,58.8,30.10,NE,43,0.0,0.0,76,0.03,BKN,,0.12,WeatherDisplay:10.37,2013-06-23 15:17:00,
2013-06-23 11:22:00,66.3,58.5,30.10,NE,43,0.0,0.0,76,0.03,BKN,,0.12,WeatherDisplay:10.37,2013-06-23 15:22:00,
2013-06-23 11:27:00,66.7,58.9,30.10,NE,43,0.0,0.0,76,0.03,BKN,,0.12,WeatherDisplay:10.37,2013-06-23 15:27:00,
2013-06-23 11:33:00,67.7,59.9,30.10,NE,43,0.0,0.0,76,0.03,BKN,,0.12,WeatherDisplay:10.37,2013-06-23 15:33:00,
2013-06-23 11:39:00,67.5,59.7,30.10,NE,43,0.0,0.0,76,0.03,BKN,,0.12,WeatherDisplay:10.37,2013-06-23 15:39:00,
2013-06-23 11:44:00,67.7,59.9,30.10,NE,43,0.0,0.0,76,0.03,BKN,,0.12,WeatherDisplay:10.37,2013-06-23 15:44:00,
2013-06-23 11:49:00,68.0,60.2,30.10,NE,43,0.0,0.0,76,0.03,BKN,,0.12,WeatherDisplay:10.37,2013-06-23 15:49:00,
2013-06-23 11:54:00,67.8,60.0,30.10,NE,43,0.0,0.0,76,0.03,BKN,,0.12,WeatherDisplay:10.37,2013-06-23 15:54:00,
2013-06-23 11:59:00,67.5,59.7,30.10,NE,43,0.0,0.0,76,0.02,BKN,,0.12,WeatherDisplay:10.37,2013-06-23 15:59:00,
2013-06-23 12:04:00,67.7,60.6,30.09,NE,43,0.0,0.0,78,0.02,BKN,,0.12,WeatherDisplay:10.37,2013-06-23 16:04:00,
2013-06-23 12:09:00,67.9,60.8,30.09,NE,43,0.0,0.0,78,0.02,BKN,,0.12,WeatherDisplay:10.37,2013-06-23 16:09:00,
2013-06-23 12:14:00,68.4,61.3,30.09,NE,43,0.0,0.0,78,0.00,BKN,,0.12,WeatherDisplay:10.37,2013-06-23 16:14:00,
2013-06-23 12:19:00,68.4,61.3,30.09,NE,42,0.0,0.0,78,0.00,BKN,,0.12,WeatherDisplay:10.37,2013-06-23 16:19:00,
2013-06-23 12:24:00,68.4,61.3,30.09,NE,43,0.0,0.0,78,0.00,BKN,,0.12,WeatherDisplay:10.37,2013-06-23 16:24:00,
2013-06-23 12:29:00,68.8,61.7,30.09,NE,43,0.0,0.0,78,0.00,BKN,,0.12,WeatherDisplay:10.37,2013-06-23 16:29:00,
2013-06-23 12:35:00,69.3,62.1,30.09,NE,43,0.0,0.0,78,0.00,BKN,,0.12,WeatherDisplay:10.37,2013-06-23 16:35:00,
2013-06-23 12:40:00,69.8,62.6,30.09,NE,43,0.0,0.0,78,0.00,BKN,,0.12,WeatherDisplay:10.37,2013-06-23 16:40:00,
2013-06-23 12:45:00,71.6,64.4,30.09,NE,43,0.0,0.0,78,0.00,BKN,,0.12,WeatherDisplay:10.37,2013-06-23 16:45:00,
2013-06-23 12:50:00,71.7,64.5,30.09,NE,43,0.0,0.0,78,0.00,BKN,,0.12,WeatherDisplay:10.37,2013-06-23 16:50:00,
2013-06-23 12:55:00,72.1,64.9,30.09,NE,43,0.0,0.0,78,0.00,BKN,,0.12,WeatherDisplay:10.37,2013-06-23 16:55:00,
2013-06-23 12:57:00,71.2,64.0,30.09,NE,43,0.0,0.0,78,0.00,BKN,,0.12,WeatherDisplay:10.37,2013-06-23 16:57:00,
2013-06-23 12:58:00,71.2,64.0,30.09,NE,43,0.0,0.0,78,0.00,BKN,,0.12,WeatherDisplay:10.37,2013-06-23 16:58:00,
2013-06-23 13:03:00,72.7,62.8,30.06,NE,43,0.0,0.0,71,0.00,FEW,,0.12,WeatherDisplay:10.37,2013-06-23 17:03:00,
2013-06-23 13:08:00,73.2,63.2,30.06,NE,43,0.0,0.0,71,0.00,FEW,,0.12,WeatherDisplay:10.37,2013-06-23 17:08:00,
2013-06-23 13:13:00,73.0,63.0,30.06,NE,43,0.0,0.0,71,0.00,FEW,,0.12,WeatherDisplay:10.37,2013-06-23 17:13:00,
2013-06-23 13:18:00,73.7,63.7,30.06,NE,43,0.0,0.0,71,0.00,FEW,,0.12,WeatherDisplay:10.37,2013-06-23 17:18:00,
2013-06-23 13:23:00,73.3,63.3,30.06,NE,43,0.0,0.0,71,0.00,FEW,,0.12,WeatherDisplay:10.37,2013-06-23 17:23:00,
2013-06-23 13:28:00,74.1,64.1,30.06,NE,43,0.0,0.0,71,0.00,FEW,,0.12,WeatherDisplay:10.37,2013-06-23 17:28:00,
2013-06-23 13:33:00,74.4,64.4,30.06,NE,43,0.0,0.0,71,0.00,FEW,,0.12,WeatherDisplay:10.37,2013-06-23 17:33:00,
2013-06-23 13:38:00,74.9,64.9,30.06,NE,43,0.0,0.0,71,0.00,FEW,,0.12,WeatherDisplay:10.37,2013-06-23 17:38:00,
2013-06-23 13:43:00,74.0,64.0,30.06,NE,43,0.0,0.0,71,0.00,FEW,,0.12,WeatherDisplay:10.37,2013-06-23 17:43:00,
2013-06-23 13:48:00,74.0,64.0,30.06,NE,43,0.0,0.0,71,0.00,FEW,,0.12,WeatherDisplay:10.37,2013-06-23 17:48:00,
2013-06-23 13:53:00,74.2,64.2,30.06,NE,43,0.0,0.0,71,0.00,FEW,,0.12,WeatherDisplay:10.37,2013-06-23 17:53:00,
2013-06-23 13:58:00,75.8,65.7,30.06,NE,43,0.0,0.0,71,0.00,FEW,,0.12,WeatherDisplay:10.37,2013-06-23 17:58:00,
2013-06-23 14:03:00,74.5,61.5,30.04,NE,43,0.0,0.0,64,0.00,CLR,,0.12,WeatherDisplay:10.37,2013-06-23 18:03:00,
2013-06-23 14:08:00,76.4,63.3,30.04,NE,43,0.0,0.0,64,0.00,CLR,,0.12,WeatherDisplay:10.37,2013-06-23 18:08:00,
2013-06-23 14:13:00,75.4,62.4,30.04,NE,43,0.0,0.0,64,0.00,CLR,,0.12,WeatherDisplay:10.37,2013-06-23 18:13:00,
2013-06-23 14:18:00,77.1,64.0,30.04,NE,43,0.0,0.0,64,0.00,CLR,,0.12,WeatherDisplay:10.37,2013-06-23 18:18:00,
2013-06-23 14:23:00,77.4,64.3,30.04,NE,43,0.0,0.0,64,0.00,CLR,,0.12,WeatherDisplay:10.37,2013-06-23 18:23:00,
2013-06-23 14:28:00,77.7,64.5,30.04,NE,43,0.0,0.0,64,0.00,CLR,,0.12,WeatherDisplay:10.37,2013-06-23 18:28:00,
2013-06-23 14:33:00,77.8,64.6,30.04,NE,52,0.0,0.0,64,0.00,CLR,,0.12,WeatherDisplay:10.37,2013-06-23 18:33:00,
2013-06-23 14:38:00,77.9,64.7,30.04,NE,52,0.0,0.0,64,0.00,CLR,,0.12,WeatherDisplay:10.37,2013-06-23 18:38:00,
2013-06-23 14:43:00,78.3,65.1,30.04,NE,52,0.0,0.0,64,0.00,CLR,,0.12,WeatherDisplay:10.37,2013-06-23 18:43:00,
2013-06-23 14:48:00,78.9,65.7,30.04,NE,52,0.0,0.0,64,0.00,CLR,,0.12,WeatherDisplay:10.37,2013-06-23 18:48:00,
2013-06-23 14:53:00,78.4,65.2,30.04,NE,52,0.0,0.0,64,0.00,CLR,,0.12,WeatherDisplay:10.37,2013-06-23 18:53:00,
2013-06-23 14:59:00,78.7,65.5,30.04,NE,52,0.0,0.0,64,0.00,CLR,,0.12,WeatherDisplay:10.37,2013-06-23 18:59:00,
2013-06-23 15:04:00,78.7,65.5,30.04,NE,52,0.0,0.0,64,0.00,CLR,,0.12,WeatherDisplay:10.37,2013-06-23 19:04:00,
2013-06-23 15:09:00,79.1,65.9,30.04,NE,52,0.0,0.0,64,0.00,CLR,,0.12,WeatherDisplay:10.37,2013-06-23 19:09:00,
2013-06-23 15:14:00,78.4,62.9,30.01,NE,52,0.0,0.0,59,0.00,CLR,,0.12,WeatherDisplay:10.37,2013-06-23 19:14:00,
2013-06-23 15:19:00,79.2,63.6,30.01,NE,52,0.0,0.0,59,0.00,CLR,,0.12,WeatherDisplay:10.37,2013-06-23 19:19:00,
2013-06-23 15:24:00,79.7,64.1,30.01,NE,52,0.0,0.0,59,0.00,CLR,,0.12,WeatherDisplay:10.37,2013-06-23 19:24:00,
2013-06-23 15:29:00,79.7,64.1,30.01,NE,52,0.0,0.0,59,0.00,CLR,,0.12,WeatherDisplay:10.37,2013-06-23 19:29:00,
2013-06-23 15:34:00,79.9,64.3,30.01,NE,52,0.0,0.0,59,0.00,CLR,,0.12,WeatherDisplay:10.37,2013-06-23 19:34:00,
2013-06-23 15:39:00,80.3,64.7,30.01,NE,52,0.0,0.0,59,0.00,CLR,,0.12,WeatherDisplay:10.37,2013-06-23 19:39:00,
2013-06-23 15:44:00,80.2,64.6,30.01,NE,52,0.0,0.0,59,0.00,CLR,,0.12,WeatherDisplay:10.37,2013-06-23 19:44:00,
2013-06-23 15:49:00,78.7,63.2,30.01,NE,52,0.0,0.0,59,0.00,CLR,,0.12,WeatherDisplay:10.37,2013-06-23 19:49:00,
2013-06-23 15:54:00,78.2,62.7,30.01,NE,52,0.0,0.0,59,0.00,CLR,,0.12,WeatherDisplay:10.37,2013-06-23 19:54:00,
2013-06-23 15:59:00,78.1,62.6,30.01,NE,52,0.0,0.0,59,0.00,CLR,,0.12,WeatherDisplay:10.37,2013-06-23 19:59:00,
2013-06-23 16:04:00,76.6,61.2,30.01,NE,52,0.0,0.0,59,0.01,RA,,0.15,WeatherDisplay:10.37,2013-06-23 20:04:00,
2013-06-23 16:09:00,74.4,59.1,30.01,NE,52,0.0,0.0,59,0.07,CLR,,0.19,WeatherDisplay:10.37,2013-06-23 20:09:00,
2013-06-23 16:14:00,75.4,56.5,29.98,NE,52,0.0,0.0,52,0.07,FEW,,0.19,WeatherDisplay:10.37,2013-06-23 20:14:00,
2013-06-23 16:19:00,75.7,56.8,29.98,NE,52,0.0,0.0,52,0.07,FEW,,0.19,WeatherDisplay:10.37,2013-06-23 20:19:00,
2013-06-23 16:24:00,75.7,56.8,29.98,NE,52,0.0,0.0,52,0.07,FEW,,0.19,WeatherDisplay:10.37,2013-06-23 20:24:00,
2013-06-23 16:29:00,74.9,56.1,29.98,NE,52,0.0,0.0,52,0.07,FEW,,0.19,WeatherDisplay:10.37,2013-06-23 20:29:00,
2013-06-23 16:34:00,75.1,56.3,29.98,NE,52,0.0,0.0,52,0.07,FEW,,0.19,WeatherDisplay:10.37,2013-06-23 20:34:00,
2013-06-23 16:39:00,75.7,56.8,29.98,NE,52,0.0,0.0,52,0.07,FEW,,0.19,WeatherDisplay:10.37,2013-06-23 20:39:00,
2013-06-23 16:44:00,75.0,56.2,29.98,NE,52,0.0,0.0,52,0.07,FEW,,0.19,WeatherDisplay:10.37,2013-06-23 20:44:00,
2013-06-23 16:49:00,75.2,56.4,29.98,NE,52,0.0,0.0,52,0.07,FEW,,0.19,WeatherDisplay:10.37,2013-06-23 20:49:00,
2013-06-23 16:54:00,75.2,56.4,29.98,NE,52,0.0,0.0,52,0.07,FEW,,0.19,WeatherDisplay:10.37,2013-06-23 20:54:00,
2013-06-23 16:59:00,75.6,56.7,29.98,NE,52,0.0,0.0,52,0.07,FEW,,0.19,WeatherDisplay:10.37,2013-06-23 20:59:00,
2013-06-23 17:04:00,76.6,57.1,29.97,NE,52,0.0,0.0,51,0.04,BKN,,0.19,WeatherDisplay:10.37,2013-06-23 21:04:00,
2013-06-23 17:09:00,76.2,56.7,29.97,NE,52,0.0,0.0,51,0.00,BKN,,0.19,WeatherDisplay:10.37,2013-06-23 21:09:00,
2013-06-23 17:14:00,75.8,56.4,29.97,NE,52,0.0,0.0,51,0.00,BKN,,0.19,WeatherDisplay:10.37,2013-06-23 21:14:00,
2013-06-23 17:19:00,76.1,56.7,29.97,NE,52,0.0,0.0,51,0.00,BKN,,0.19,WeatherDisplay:10.37,2013-06-23 21:19:00,
2013-06-23 17:24:00,76.9,57.4,29.97,NE,52,0.0,0.0,51,0.00,BKN,,0.19,WeatherDisplay:10.37,2013-06-23 21:24:00,
2013-06-23 17:29:00,77.4,57.9,29.97,NE,52,0.0,0.0,51,0.00,BKN,,0.19,WeatherDisplay:10.37,2013-06-23 21:29:00,
2013-06-23 17:34:00,77.2,57.7,29.97,NE,52,0.0,0.0,51,0.00,BKN,,0.19,WeatherDisplay:10.37,2013-06-23 21:34:00,
2013-06-23 17:39:00,76.4,56.9,29.97,NE,52,0.0,0.0,51,0.00,BKN,,0.19,WeatherDisplay:10.37,2013-06-23 21:39:00,
2013-06-23 17:44:00,76.5,57.0,29.97,NE,52,0.0,0.0,51,0.00,BKN,,0.19,WeatherDisplay:10.37,2013-06-23 21:44:00,
2013-06-23 17:49:00,76.4,56.9,29.97,NE,52,0.0,0.0,51,0.00,BKN,,0.19,WeatherDisplay:10.37,2013-06-23 21:49:00,
2013-06-23 17:54:00,76.3,56.8,29.97,NE,52,0.0,0.0,51,0.00,BKN,,0.19,WeatherDisplay:10.37,2013-06-23 21:54:00,
2013-06-23 17:59:00,76.3,56.8,29.97,NE,52,0.0,0.0,51,0.00,BKN,,0.19,WeatherDisplay:10.37,2013-06-23 21:59:00,
2013-06-23 18:04:00,76.4,56.9,29.97,NE,52,0.0,0.0,51,0.00,BKN,,0.19,WeatherDisplay:10.37,2013-06-23 22:04:00,
2013-06-23 18:09:00,76.3,56.8,29.97,NE,52,0.0,0.0,51,0.00,BKN,,0.19,WeatherDisplay:10.37,2013-06-23 22:09:00,
2013-06-23 18:14:00,76.3,59.9,29.95,NE,52,0.0,0.0,57,0.00,CLR,,0.19,WeatherDisplay:10.37,2013-06-23 22:14:00,
2013-06-23 18:19:00,76.3,59.9,29.95,NE,52,0.0,0.0,57,0.00,CLR,,0.19,WeatherDisplay:10.37,2013-06-23 22:19:00,
2013-06-23 18:24:00,76.2,59.9,29.95,NE,52,0.0,0.0,57,0.00,CLR,,0.19,WeatherDisplay:10.37,2013-06-23 22:24:00,
2013-06-23 18:29:00,76.0,59.7,29.95,NE,52,0.0,0.0,57,0.00,CLR,,0.19,WeatherDisplay:10.37,2013-06-23 22:29:00,
2013-06-23 18:34:00,75.8,59.5,29.95,NE,52,0.0,0.0,57,0.00,CLR,,0.19,WeatherDisplay:10.37,2013-06-23 22:34:00,
2013-06-23 18:39:00,75.6,59.3,29.95,NE,52,0.0,0.0,57,0.00,CLR,,0.19,WeatherDisplay:10.37,2013-06-23 22:39:00,
2013-06-23 18:44:00,75.5,59.2,29.95,NE,52,0.0,0.0,57,0.00,CLR,,0.19,WeatherDisplay:10.37,2013-06-23 22:44:00,
2013-06-23 18:49:00,75.4,59.1,29.95,NE,52,0.0,0.0,57,0.00,CLR,,0.19,WeatherDisplay:10.37,2013-06-23 22:49:00,
2013-06-23 18:54:00,75.3,59.0,29.95,NE,52,0.0,0.0,57,0.00,CLR,,0.19,WeatherDisplay:10.37,2013-06-23 22:54:00,
2013-06-23 18:59:00,75.1,58.8,29.95,NE,52,0.0,0.0,57,0.00,CLR,,0.19,WeatherDisplay:10.37,2013-06-23 22:59:00,
2013-06-23 19:04:00,75.0,58.7,29.95,NE,52,0.0,0.0,57,0.00,CLR,,0.19,WeatherDisplay:10.37,2013-06-23 23:04:00,
2013-06-23 19:09:00,75.0,58.7,29.95,NE,52,0.0,0.0,57,0.00,CLR,,0.19,WeatherDisplay:10.37,2013-06-23 23:09:00,
2013-06-23 19:14:00,74.7,62.1,29.97,NE,52,0.0,0.0,65,0.00,CLR,,0.19,WeatherDisplay:10.37,2013-06-23 23:14:00,
2013-06-23 19:19:00,73.6,61.1,29.97,NW,316,3.5,3.5,65,0.02,RA,,0.21,WeatherDisplay:10.37,2013-06-23 23:19:00,
2013-06-23 19:24:00,72.6,60.2,29.97,NW,321,3.5,3.5,65,0.02,CLR,,0.21,WeatherDisplay:10.37,2013-06-23 23:24:00,
2013-06-23 19:30:00,72.1,59.7,29.97,NNE,29,3.5,3.5,65,0.02,CLR,,0.21,WeatherDisplay:10.37,2013-06-23 23:30:00,
2013-06-23 19:35:00,71.6,59.2,29.97,WNW,288,3.5,3.5,65,0.02,CLR,,0.21,WeatherDisplay:10.37,2013-06-23 23:35:00,
2013-06-23 19:40:00,69.9,57.6,29.97,NW,315,9.0,9.0,65,0.02,CLR,,0.21,WeatherDisplay:10.37,2013-06-23 23:40:00,
2013-06-23 19:45:00,68.9,56.6,29.97,NW,313,3.5,3.5,65,0.02,CLR,,0.21,WeatherDisplay:10.37,2013-06-23 23:45:00,
2013-06-23 19:50:00,67.7,55.5,29.97,NW,316,3.5,3.5,65,0.02,CLR,,0.21,WeatherDisplay:10.37,2013-06-23 23:50:00,
2013-06-23 19:55:00,67.1,54.9,29.97,NW,316,3.5,3.5,65,0.04,RA,,0.24,WeatherDisplay:10.37,2013-06-23 23:55:00,
2013-06-23 20:00:00,66.7,54.6,29.97,NW,316,2.3,2.3,65,0.06,RA,,0.25,WeatherDisplay:10.37,2013-06-24 00:00:00,
2013-06-23 20:05:00,66.1,54.4,29.97,NW,316,2.3,2.3,66,0.08,RA,,0.27,WeatherDisplay:10.37,2013-06-24 00:05:00,
2013-06-23 20:10:00,66.7,55.0,29.97,NW,316,1.1,1.1,66,0.09,RA,,0.28,WeatherDisplay:10.37,2013-06-24 00:10:00,
2013-06-23 20:15:00,66.5,54.8,29.97,NW,316,1.1,1.1,66,0.10,RA,,0.29,WeatherDisplay:10.37,2013-06-24 00:15:00,
2013-06-23 20:20:00,66.6,54.9,29.97,NW,316,0.0,0.0,66,0.09,RA,,0.30,WeatherDisplay:10.37,2013-06-24 00:20:00,
2013-06-23 20:25:00,67.7,55.9,29.97,NW,316,0.0,0.0,66,0.09,CLR,,0.30,WeatherDisplay:10.37,2013-06-24 00:25:00,
2013-06-23 20:30:00,68.0,56.2,29.97,NW,316,0.0,0.0,66,0.09,CLR,,0.30,WeatherDisplay:10.37,2013-06-24 00:30:00,
2013-06-23 20:35:00,66.7,52.8,30.00,NW,316,0.0,0.0,61,0.09,BKN,,0.30,WeatherDisplay:10.37,2013-06-24 00:35:00,
2013-06-23 20:40:00,66.1,52.3,30.00,NW,316,0.0,0.0,61,0.09,BKN,,0.30,WeatherDisplay:10.37,2013-06-24 00:40:00,
2013-06-23 20:45:00,65.9,53.8,30.01,NW,316,0.0,0.0,65,0.09,BKN,,0.30,WeatherDisplay:10.37,2013-06-24 00:45:00,
2013-06-23 20:50:00,67.3,55.1,30.01,NW,316,0.0,0.0,65,0.09,BKN,,0.30,WeatherDisplay:10.37,2013-06-24 00:50:00,
2013-06-23 20:55:00,66.5,54.4,30.01,NW,316,0.0,0.0,65,0.07,BKN,,0.30,WeatherDisplay:10.37,2013-06-24 00:55:00,
2013-06-23 21:00:00,67.8,55.6,30.01,NW,316,0.0,0.0,65,0.05,BKN,,0.30,WeatherDisplay:10.37,2013-06-24 01:00:00,
2013-06-23 21:05:00,68.0,57.0,30.02,NW,316,0.0,0.0,68,0.03,BKN,,0.30,WeatherDisplay:10.37,2013-06-24 01:05:00,
2013-06-23 21:10:00,67.5,56.6,30.02,NW,316,0.0,0.0,68,0.02,BKN,,0.30,WeatherDisplay:10.37,2013-06-24 01:10:00,
2013-06-23 21:15:00,66.9,56.0,30.02,NW,316,0.0,0.0,68,0.01,BKN,,0.30,WeatherDisplay:10.37,2013-06-24 01:15:00,
2013-06-23 21:20:00,66.5,55.6,30.02,NW,316,0.0,0.0,68,0.00,BKN,,0.30,WeatherDisplay:10.37,2013-06-24 01:20:00,
2013-06-23 21:25:00,66.3,55.4,30.02,NW,316,0.0,0.0,68,0.00,BKN,,0.30,WeatherDisplay:10.37,2013-06-24 01:25:00,
2013-06-23 21:30:00,66.1,55.2,30.02,NW,316,0.0,0.0,68,0.00,BKN,,0.30,WeatherDisplay:10.37,2013-06-24 01:30:00,
2013-06-23 21:35:00,66.1,55.2,30.02,NW,316,0.0,0.0,68,0.00,BKN,,0.30,WeatherDisplay:10.37,2013-06-24 01:35:00,
2013-06-23 21:40:00,66.0,55.1,30.02,NW,316,0.0,0.0,68,0.00,BKN,,0.30,WeatherDisplay:10.37,2013-06-24 01:40:00,
2013-06-23 21:45:00,66.2,55.3,30.02,NW,316,0.0,0.0,68,0.00,BKN,,0.30,WeatherDisplay:10.37,2013-06-24 01:45:00,
2013-06-23 21:50:00,66.0,55.1,30.02,NW,316,0.0,0.0,68,0.00,BKN,,0.30,WeatherDisplay:10.37,2013-06-24 01:50:00,
2013-06-23 21:55:00,66.1,55.2,30.02,NW,316,0.0,0.0,68,0.00,BKN,,0.30,WeatherDisplay:10.37,2013-06-24 01:55:00,
2013-06-23 22:00:00,66.2,55.3,30.02,NW,316,0.0,0.0,68,0.00,BKN,,0.30,WeatherDisplay:10.37,2013-06-24 02:00:00,
2013-06-23 22:05:00,65.9,55.0,30.02,NW,316,0.0,0.0,68,0.00,BKN,,0.30,WeatherDisplay:10.37,2013-06-24 02:05:00,
2013-06-23 22:10:00,65.7,54.8,30.02,NW,316,0.0,0.0,68,0.00,BKN,,0.30,WeatherDisplay:10.37,2013-06-24 02:10:00,
2013-06-23 22:15:00,65.8,64.6,30.02,NW,316,0.0,0.0,96,0.00,-RA,,0.30,WeatherDisplay:10.37,2013-06-24 02:15:00,
2013-06-23 22:20:00,65.8,64.6,30.02,NW,316,0.0,0.0,96,0.00,-RA,,0.30,WeatherDisplay:10.37,2013-06-24 02:20:00,
2013-06-23 22:25:00,65.7,64.5,30.02,NW,316,0.0,0.0,96,0.00,-RA,,0.30,WeatherDisplay:10.37,2013-06-24 02:25:00,
2013-06-23 22:30:00,65.9,64.7,30.02,NW,316,0.0,0.0,96,0.00,-RA,,0.30,WeatherDisplay:10.37,2013-06-24 02:30:00,
2013-06-23 22:35:00,65.8,64.6,30.02,NW,316,0.0,0.0,96,0.00,-RA,,0.30,WeatherDisplay:10.37,2013-06-24 02:35:00,
2013-06-23 22:40:00,65.8,64.6,30.02,NW,316,0.0,0.0,96,0.00,-RA,,0.30,WeatherDisplay:10.37,2013-06-24 02:40:00,
2013-06-23 22:45:00,65.8,64.6,30.02,NW,316,0.0,0.0,96,0.00,-RA,,0.30,WeatherDisplay:10.37,2013-06-24 02:45:00,
2013-06-23 22:50:00,65.8,64.6,30.02,NW,316,0.0,0.0,96,0.00,-RA,,0.30,WeatherDisplay:10.37,2013-06-24 02:50:00,
2013-06-23 22:55:00,67.4,66.2,30.02,NW,316,0.0,0.0,96,0.00,-RA,,0.30,WeatherDisplay:10.37,2013-06-24 02:55:00,
2013-06-23 23:00:00,66.4,65.2,30.02,NW,316,0.0,0.0,96,0.00,-RA,,0.30,WeatherDisplay:10.37,2013-06-24 03:00:00,
2013-06-23 23:05:00,66.1,64.9,30.02,NW,316,0.0,0.0,96,0.00,-RA,,0.30,WeatherDisplay:10.37,2013-06-24 03:05:00,
2013-06-23 23:10:00,65.8,64.6,30.02,NW,316,0.0,0.0,96,0.00,-RA,,0.30,WeatherDisplay:10.37,2013-06-24 03:10:00,
2013-06-23 23:15:00,65.6,65.6,30.02,NW,316,0.0,0.0,100,0.00,FEW,,0.30,WeatherDisplay:10.37,2013-06-24 03:15:00,
2013-06-23 23:20:00,65.6,65.6,30.02,NW,316,0.0,0.0,100,0.00,FEW,,0.30,WeatherDisplay:10.37,2013-06-24 03:20:00,
2013-06-23 23:25:00,65.6,65.6,30.02,NW,316,0.0,0.0,100,0.00,FEW,,0.30,WeatherDisplay:10.37,2013-06-24 03:25:00,
2013-06-23 23:30:00,65.5,65.5,30.02,NW,316,0.0,0.0,100,0.00,FEW,,0.30,WeatherDisplay:10.37,2013-06-24 03:30:00,
2013-06-23 23:35:00,65.5,65.5,30.02,NW,316,0.0,0.0,100,0.00,FEW,,0.30,WeatherDisplay:10.37,2013-06-24 03:35:00,
2013-06-23 23:40:00,65.4,65.4,30.02,NW,316,0.0,0.0,100,0.00,FEW,,0.30,WeatherDisplay:10.37,2013-06-24 03:40:00,
2013-06-23 23:45:00,65.3,65.3,30.02,NW,316,0.0,0.0,100,0.00,FEW,,0.30,WeatherDisplay:10.37,2013-06-24 03:45:00,
2013-06-23 23:50:00,65.0,65.0,30.02,NW,316,0.0,0.0,100,0.00,FEW,,0.30,WeatherDisplay:10.37,2013-06-24 03:50:00,
2013-06-23 23:55:00,65.1,65.1,30.02,NW,316,0.0,0.0,100,0.01,RA,,0.31,WeatherDisplay:10.37,2013-06-24 03:55:00,